Preview of NWS' New Version of Forecast
This preview is not operational and should not be used for support decisions.
Latest weather observations around

El Dorado Captain Jack Thomas Airport (KEQA)

Using English Units (Switch to International System of Units)
Date/ Time (CDT) Wind (mph) Vis. (mi) Weather Sky Cond. Temp (°F) Rel. Humidity Wind Chill (°F) Heat Index (°F) Pressure Precip. (in)
Air Dwpt 6 hour Altimeter (inHg) Sea level (inHg) 1 hr 3 hr 6 hr
Max Min
Jun 24 10:55 NNW 8 10 Clear CLR 72 55     57%   71 29.91        
Jun 24 10:35 WNW 9 10 Clear CLR 72 55     57%   71 29.92        
Jun 24 10:15 NW 11 10 Clear CLR 70 54     56%     29.91        
Jun 24 09:55 WNW 10 10 Clear CLR 70 55     60%     29.91        
Jun 24 09:35 NW 7 10 Clear CLR 68 54     60%     29.92        
Jun 24 09:15 NW 10 10 Clear CLR 68 54     60%     29.91        
Jun 24 08:55 NW 8 10 Clear CLR 66 55     68%     29.91        
Jun 24 08:35 NW 8 10 Clear CLR 64 55     73%     29.91        
Jun 24 08:15 NW 8 10 Clear CLR 64 54     68%     29.9        
Jun 24 07:55 NW 5 10 Clear CLR 63 55     77%     29.9        
Jun 24 07:35 NNW 6 10 Clear CLR 63 55     77%     29.89        
Jun 24 07:15 NNW 7 10 Clear CLR 61 55     82%     29.89        
Jun 24 06:55 NNW 8 10 Clear CLR 61 55     82%     29.88        
Jun 24 06:35 NNW 6 10 Clear CLR 59 55     88%     29.88        
Jun 24 06:15 N 7 10 Clear CLR 59 55     88%     29.87        
Jun 24 05:55 NNW 6 10 Clear CLR 59 55     88%     29.86        
Jun 24 05:15 NNW 11 10 Partly Cloudy SCT009 SCT070 61 55     82%     29.85        
Jun 24 04:55 NNW 14 10 Mostly Cloudy BKN009 BKN080 63 59     88%     29.84        
Jun 24 04:35 NW 13 10 Mostly Cloudy SCT011 BKN080 BKN090 63 61     94%     29.84        
Jun 24 04:15 NNW 9 10 Mostly Cloudy SCT036 BKN070 BKN080 64 61     88%     29.83        
Jun 24 03:55 NW 6 10 Mostly Cloudy BKN036 BKN044 BKN050 64 63     94%     29.82        
Jun 24 03:35 NNW 5 10 Partly Cloudy SCT033 SCT041 SCT050 64 63     94%     29.81        
Jun 24 03:15 N 6 10 Mostly Cloudy SCT033 BKN039 BKN060 66 63     88%     29.81        
Jun 24 02:55 NNW 8 10 Cloudy SCT013 BKN030 OVC110 68 63     83%     29.82        
Jun 24 02:35 N 11 10 Cloudy SCT016 OVC027 68 64     88%     29.82        
Jun 24 02:15 N 9 10 Mostly Cloudy SCT020 BKN025 BKN045 68 64     88%     29.81        
Jun 24 01:55 NNW 7 10 Mostly Cloudy SCT035 BKN044 68 64     88%     29.81        
Jun 24 01:35 NNE 3 10 Mostly Cloudy BKN035 68 64     88%     29.82        
Jun 24 01:15 Calm 10 Clear CLR 68 64     88%     29.82        
Jun 24 00:55 SE 5 10 Clear CLR 68 64     88%     29.83        
Jun 24 00:35 Calm 10 Clear CLR 70 64     83%     29.83        
Jun 24 00:15 NW 3 10 Clear CLR 70 64     83%     29.85        
Jun 23 23:55 Calm 10 Clear CLR 70 64     83%     29.84        
Jun 23 23:35 Calm 10 Clear CLR 70 64     83%     29.83        
Jun 23 23:15 Calm 10 Clear CLR 70 64     83%     29.8        
Jun 23 22:55 Calm 10 Partly Cloudy SCT050 72 66     83%   72 29.79        
Jun 23 22:35 Calm 10 Clear CLR 70 68     94%     29.79        
Jun 23 22:15 Calm 10 Clear CLR 72 64     78%   72 29.78        
Jun 23 21:55 Calm 10 Clear CLR 72 66     83%   72 29.78        
Jun 23 21:35 Calm 10 Clear CLR 72 66     83%   72 29.79        
Jun 23 21:15 Calm 10 Clear CLR 73 66     78%   74 29.79        
Jun 23 20:55 NW 5 10 Clear CLR 73 66     78%   74 29.78        
Jun 23 20:35 Calm 10 Clear CLR 75 68     78%   76 29.77        
Jun 23 20:15 Calm 10 Clear CLR 77 68     74%   78 29.77        
Jun 23 19:55 NNW 5 10 Partly Cloudy SCT037 77 66     69%   78 29.76        
Jun 23 19:35 NW 5 10 Partly Cloudy SCT037 SCT045 SCT050 77 64     65%   77 29.77        
Jun 23 19:15 WNW 6 10 Mostly Cloudy BKN037 BKN045 BKN050 77 66     69%   78 29.76        
Jun 23 18:55 W 7 10 Cloudy BKN037 OVC043 79 64     61%   79 29.76        
Jun 23 18:35 WNW 8 10 Mostly Cloudy BKN037 BKN044 79 64     61%   79 29.76        
Jun 23 18:15 W 5 10 Mostly Cloudy SCT039 BKN047 81 64     58%   82 29.75        
Jun 23 17:55 W 7 10 Mostly Cloudy SCT042 BKN049 79 64     61%   79 29.75        
Jun 23 17:35 W 5 10 Mostly Cloudy SCT040 BKN046 79 64     61%   79 29.75        
Jun 23 17:15 W 5 10 Partly Cloudy SCT038 79 64     61%   79 29.76        
Jun 23 16:55 SW 7 10 Partly Cloudy SCT038 79 64     61%   79 29.77        
Jun 23 16:35 W 8 10 Partly Cloudy SCT038 79 64     61%   79 29.77        
Jun 23 16:15 W 7 10 Clear CLR 79 64     61%   79 29.78        
Jun 23 15:55 WSW 8 10 Mostly Cloudy BKN042 79 64     61%   79 29.79        
Jun 23 15:35 WSW 7 10 Cloudy SCT027 OVC042 79 64     61%   79 29.8        
Jun 23 15:15 WSW 6 10 Cloudy BKN027 BKN032 OVC040 77 64     65%   77 29.8        
Jun 23 14:55 WSW 10 10 Mostly Cloudy SCT027 BKN032 BKN038 77 64     65%   77 29.8        
Jun 23 14:35 WSW 8 10 Cloudy SCT021 SCT028 OVC036 77 64     65%   77 29.82        
Jun 23 14:15 W 9 10 Cloudy BKN023 OVC031 73 64     73%   74 29.83        
Jun 23 13:55 W 7 10 Cloudy SCT022 OVC029 75 64     69%   76 29.84        
Jun 23 13:35 WSW 9 10 Cloudy BKN018 OVC025 73 64     73%   74 29.85        
Jun 23 13:15 W 6 10 Mostly Cloudy BKN018 BKN024 72 63     73%   72 29.85        
Jun 23 12:55 SSW 6 10 Partly Cloudy SCT016 72 64     78%   72 29.83        
Jun 23 12:35 S 8 10 Partly Cloudy SCT016 72 64     78%   72 29.83        
Jun 23 12:15 SE 6 10 Clear CLR 72 63     73%   72 29.81        
Jun 23 11:55 SSE 9 10 Clear CLR 72 64     78%   72 29.81        
Jun 23 11:35 SE 10 10 Clear CLR 70 64     83%     29.8        
Jun 23 11:15 SE 13 10 Clear CLR 70 63     78%     29.79        
Jun 23 10:55 ESE 10 10 Clear CLR 70 63     78%     29.79        
Jun 23 10:35 SE 10 10 Clear CLR 68 63     83%     29.78        
Jun 23 10:15 ESE 13 10 Partly Cloudy SCT100 68 64     88%     29.77        
Jun 23 09:55 E 10 10 Clear CLR 66 63     88%     29.79        
Jun 23 09:35 E 11 10 Clear CLR 66 63     88%     29.8        
Jun 23 09:15 E 15 10 Clear CLR 66 63     88%     29.8        
Jun 23 08:55 E 9 10 Clear CLR 66 63     88%     29.8        
Jun 23 08:35 ENE 15 10 Clear CLR 66 63     88%     29.8        
Jun 23 08:15   10 Partly Cloudy SCT090 SCT120 66 64     94%     29.76        
Jun 23 07:55 ENE 5 10 Partly Cloudy SCT120 66 64     94%     29.84        
Jun 23 07:35 NNE 6 10 Light Rain SCT049 SCT110 66 64     94%     29.86        
Jun 23 07:15 N 9 10 Light Rain SCT007 SCT055 BKN120 66 64     94%     29.85        
Jun 23 06:55 N 11 10 Light Rain SCT009 SCT055 OVC120 66 64     94%     29.84        
Jun 23 06:35 NNE 10 10 Light Rain BKN120 66 64     94%     29.84        
Jun 23 06:15 NE 15 10 Light Rain SCT012 BKN075 OVC110 66 64     94%     29.82        
Jun 23 05:55 NNE 11 3 Rain SCT005 BKN018 OVC049 64 63     94%     29.88        
Jun 23 05:35   1.75 Clear   64 63     94%              
Jun 23 05:15   5 Clear   66 63     88%     29.79        
Jun 23 04:55 NE 13 10 Clear   70 66     88%     29.84        
Jun 23 04:35 E 13 10 Light Rain OVC006 70 66     88%     29.78        
Jun 23 04:15 ESE 16 7 Light Rain OVC006 70 66     88%     29.77        
Jun 23 03:55 ESE 11 10 Cloudy BKN006 BKN010 OVC018 70 68     94%     29.78        
Jun 23 03:35 ESE 18 10 Cloudy BKN008 BKN011 OVC019 70 68     94%     29.78        
Jun 23 03:15 ESE 17 10 Cloudy BKN008 BKN012 OVC023 72 68     88%   73 29.79        
Jun 23 02:55 ESE 17 10 Cloudy SCT008 OVC023 72 68     88%   73 29.79        
Jun 23 02:35 ESE 14 10 Cloudy BKN023 OVC029 72 68     88%   73 29.79        
Jun 23 02:15 SE 10 10 Cloudy BKN031 OVC042 72 70     94%   73 29.79        
Jun 23 01:55 SE 11 10 Cloudy SCT016 BKN034 OVC042 72 68     88%   73 29.8        
Jun 23 01:35 ESE 9 10 Mostly Cloudy SCT014 SCT029 BKN039 70 66     88%     29.83        
Jun 23 01:15 ESE 8 10 Partly Cloudy SCT039 68 64     88%     29.86        
Jun 23 00:55 ESE 8 10 Partly Cloudy SCT060 70 64     83%     29.87        
Jun 23 00:35 SE 15 10 Partly Cloudy SCT034 SCT060 SCT080 70 64     83%     29.89        
Jun 23 00:15 SE 10 10 Mostly Cloudy SCT038 SCT050 BKN110 70 66     88%     29.87        
Jun 22 23:55 SE 9 10 Mostly Cloudy BKN039 BKN050 BKN090 70 66     88%     29.86        
Jun 22 23:35 Calm 10 Partly Cloudy SCT090 68 66     94%     29.84        
Jun 22 23:15 ENE 3 10 Partly Cloudy SCT090 68 64     88%     29.82        
Jun 22 22:55 NE 5 10 Mostly Cloudy SCT070 SCT080 BKN100 68 64     88%     29.84        
Jun 22 22:35 ENE 8 10 Rain SCT070 OVC110 68 64     88%     29.86        
Jun 22 22:15 ESE 7 10 Light Rain SCT070 OVC110 68 64     88%     29.86        
Jun 22 21:55 SSE 6 10 Rain SCT070 SCT090 OVC110 68 64     88%     29.84        
Jun 22 21:35 S 8 10 Light Rain SCT044 BKN070 OVC090 68 66     94%     29.86        
Jun 22 21:15 S 14 5 Rain SCT016 BKN050 OVC085 68 64     88%     29.89        
Jun 22 20:55   10 Light Rain SCT028 BKN070 OVC090 70 64     83%     29.89        
Jun 22 20:35 Calm 5 Heavy Rain SCT017 BKN065 OVC095 70 64     83%     29.84        
Jun 22 20:15   3 Rain SCT017 SCT037 OVC065 70 66     88%     29.82        
Jun 22 19:55   10 Rain SCT023 BKN065 OVC085 75 63     65%   75 29.79        
Jun 22 19:35   10 Mostly Cloudy SCT024 SCT040 BKN065 81 66     62%   83 29.79        
Jun 22 19:15 SSE 13 10 Clear CLR 82 75     79%   89 29.76        
Jun 22 18:55 S 14 10 Clear CLR 84 75     74%   92 29.76        
Jun 22 18:35 S 15 10 Partly Cloudy SCT028 SCT034 SCT040 84 75     74%   92 29.78        
Jun 22 18:15 S 13 10 Mostly Cloudy SCT025 SCT031 BKN036 86 77     75%   97 29.78        
Jun 22 17:55 SSE 13 10 Mostly Cloudy SCT027 BKN037 BKN048 86 77     75%   97 29.78        
Jun 22 17:35 SSE 18 10 Mostly Cloudy SCT027 BKN031 BKN045 88 77     70%   100 29.76        
Jun 22 17:15 S 11 10 Mostly Cloudy BKN027 BKN035 BKN043 88 77     70%   100 29.79        
Jun 22 16:55 SSE 15 10 Partly Cloudy SCT027 SCT043 88 77     70%   100 29.8        
Jun 22 16:35 S 14 10 Partly Cloudy SCT028 SCT043 SCT050 88 73     62%   96 29.82        
Jun 22 16:15 S 15 10 Mostly Cloudy SCT020 SCT026 BKN039 88 77     70%   100 29.83        
Jun 22 15:55 SSE 15 10 Cloudy BKN023 OVC035 86 77     75%   97 29.83        
Jun 22 15:35 S 14 10 Cloudy BKN025 OVC035 86 75     70%   95 29.83        
Jun 22 15:15 SSE 14 10 Cloudy SCT025 BKN031 OVC044 86 75     70%   95 29.83        
Jun 22 14:55 SSE 15 10 Mostly Cloudy BKN027 BKN038 BKN045 86 77     75%   97 29.83        
Jun 22 14:35 S 16 10 Mostly Cloudy SCT027 SCT033 BKN050 88 75     66%   98 29.83        
Jun 22 14:15 S 15 10 Partly Cloudy SCT050 88 75     66%   98 29.83        
Jun 22 13:55 S 15 10 Clear CLR 88 75     66%   98 29.84        
Jun 22 13:35   10 Partly Cloudy SCT029 SCT035 88 73     62%   96 29.84        
Jun 22 13:15 S 17 10 Partly Cloudy SCT029 SCT035 SCT046 88 73     62%   96 29.83        
Jun 22 12:55 S 15 10 Mostly Cloudy SCT027 BKN033 88 75     66%   98 29.84        
Jun 22 12:35   10 Partly Cloudy SCT023 SCT030 SCT041 88 75     66%   98 29.83        
Jun 22 12:15 S 16 10 Mostly Cloudy BKN023 BKN030 BKN038 88 75     66%   98 29.84        
Jun 22 11:55 S 18 10 Cloudy BKN019 BKN025 OVC042 86 77     75%   97 29.84        
Jun 22 11:35 S 13 10 Cloudy BKN019 OVC026 82 75     79%   89 29.85        
Jun 22 11:15 S 15 10 Mostly Cloudy BKN019 82 73     74%   88 29.85        
Jun 22 10:55 SSE 17 10 Partly Cloudy SCT021 84 73     70%   91 29.85        
Jun 22 10:35   10 Partly Cloudy SCT019 82 72     70%   87 29.84        
Jun 22 10:15   10 Partly Cloudy SCT016 82 72     70%   87 29.84        
Jun 22 09:55 SE 17 10 Clear CLR 82 70     66%   86 29.84        
Jun 22 09:35 SE 14 10 Clear CLR 81 68     66%   83 29.85        
Jun 22 09:15 SE 13 10 Clear CLR 79 64     61%   79 29.85        
Jun 22 08:55 ESE 14 10 Clear CLR 77 66     69%   78 29.85        
Jun 22 08:35 SE 8 10 Clear CLR 77 66     69%   78 29.85        
Jun 22 08:15 SE 10 10 Clear CLR 73 64     73%   74 29.84        
Jun 22 07:55 ESE 9 10 Clear CLR 72 66     83%   72 29.83        
Jun 22 07:35 ESE 6 10 Clear CLR 70 66     88%     29.83        
Jun 22 07:15 ESE 8 10 Clear CLR 70 64     83%     29.82        
Jun 22 06:55 SE 6 10 Clear CLR 68 64     88%     29.82        
Jun 22 06:35 SSE 3 10 Clear CLR 68 64     88%     29.83        
Jun 22 06:15 Calm 10 Clear CLR 66 63     88%     29.83        
Jun 22 05:55 ENE 3 10 Clear CLR 66 63     88%     29.8        
Jun 22 05:35 ENE 11 10 Partly Cloudy SCT026 SCT050 SCT075 68 63     83%     29.81        
Jun 22 05:15 NE 16 5 Rain SCT026 BKN070 OVC090 68 63     83%     29.84        
Jun 22 04:55   5 Heavy Rain SCT027 BKN060 OVC065 68 63     83%     29.86        
Jun 22 04:35   7 Rain SCT028 BKN036 OVC050 70 63     78%     29.87        
Jun 22 04:15 W 6 10 Cloudy OVC038 75 64     69%   76 29.83        
Jun 22 03:55 Calm 10 Cloudy OVC038 77 63     61%   77 29.81        
Jun 22 03:35 ESE 3 10 Cloudy OVC038 77 61     57%   77 29.79        
Jun 22 03:15 SE 3 10 Cloudy OVC038 77 61     57%   77 29.79        
Jun 22 02:55 N 7 10 Cloudy OVC038 77 61     57%   77 29.8        
Jun 22 02:35 N 14 10 Cloudy OVC036 79 61     54%   79 29.8        
Jun 22 02:15 NE 5 10 Cloudy OVC036 79 59     51%   79 29.79        
Jun 22 01:55 NNE 9 10 Cloudy OVC034 79 55     45%   78 29.78        
Jun 22 01:35 N 8 10 Cloudy OVC032 79 59     51%   79 29.8        
Jun 22 01:15 NNW 11 10 Cloudy OVC028 79 59     51%   79 29.82        
Jun 22 00:55 N 8 10 Cloudy OVC028 79 64     61%   79 29.82        
Jun 22 00:35   10 Partly Cloudy SCT024 SCT030 SCT044 81 68     66%   83 29.8        
Jun 22 00:15 S 11 10 Clear CLR 82 73     74%   88 29.76        
Jun 21 23:55 S 14 10 Clear CLR 82 73     74%   88 29.74        
Jun 21 23:35 S 15 10 Clear CLR 82 73     74%   88 29.72        
Jun 21 23:15 S 16 10 Clear CLR 82 73     74%   88 29.73        
Jun 21 22:55 S 15 10 Clear CLR 82 72     70%   87 29.73        
Jun 21 22:35 S 16 10 Clear CLR 84 73     70%   91 29.72        
Jun 21 22:15 S 17 10 Clear CLR 84 73     70%   91 29.71        
Jun 21 21:55 S 16 10 Clear CLR 86 73     66%   93 29.69        
Jun 21 21:35 S 16 10 Clear CLR 86 75     70%   95 29.7        
Jun 21 21:15 S 16 10 Clear CLR 86 75     70%   95 29.69        
Jun 21 20:55 S 17 10 Clear CLR 86 75     70%   95 29.68        
Jun 21 20:35 S 18 10 Clear CLR 88 77     70%   100 29.68        
Jun 21 20:15 S 16 10 Clear CLR 88 77     70%   100 29.67        
Jun 21 19:55 S 16 10 Clear CLR 90 77     67%   103 29.66        
Jun 21 19:35 S 18 10 Clear CLR 90 77     67%   103 29.66        
Jun 21 19:15 S 16 10 Clear CLR 91 77     63%   105 29.65        
Jun 21 18:55 S 18 10 Clear CLR 91 77     63%   105 29.65        
Jun 21 18:35   10 Clear CLR 93 77     60%   108 29.64        
Jun 21 18:15   10 Clear CLR 95 77     56%   110 29.63        
Jun 21 17:55 S 21 10 Clear and Windy CLR 95 75     53%   107 29.63        
Jun 21 17:35 S 18 10 Clear CLR 95 77     56%   110 29.63        
Jun 21 17:15 S 21 10 Clear and Windy CLR 95 75     53%   107 29.63        
Jun 21 16:55   10 Clear CLR 97 75     50%   110 29.63        
Jun 21 16:35 S 17 10 Clear CLR 97 75     50%   110 29.63        
Jun 21 16:15 S 17 10 Clear CLR 97 73     47%   107 29.64        
Jun 21 15:55   10 Partly Cloudy SCT050 95 73     50%   105 29.63        
Jun 21 15:35   10 Partly Cloudy SCT050 95 73     50%   105 29.64        
Jun 21 15:15   10 Partly Cloudy SCT050 95 73     50%   105 29.64        
Jun 21 14:55   10 Partly Cloudy SCT050 95 73     50%   105 29.64        
Jun 21 14:35   10 Partly Cloudy SCT050 95 73     50%   105 29.63        
Jun 21 14:15   10 Partly Cloudy SCT048 95 73     50%   105 29.64        
Jun 21 13:55   10 Partly Cloudy SCT048 95 73     50%   105 29.64        
Jun 21 13:35   10 Partly Cloudy SCT044 95 73     50%   105 29.64        
Jun 21 13:15   10 Partly Cloudy SCT042 95 73     50%   105 29.65        
Jun 21 12:55 S 18 10 Partly Cloudy SCT042 SCT047 93 73     53%   103 29.65        
Jun 21 12:35   10 Partly Cloudy SCT042 SCT055 91 73     56%   101 29.66        
Jun 21 12:15 SSW 15 10 Mostly Cloudy SCT039 BKN050 BKN055 91 75     59%   103 29.67        
Jun 21 11:55 SSW 14 10 Mostly Cloudy SCT034 SCT040 BKN046 90 77     67%   103 29.68        
Jun 21 11:35 S 11 10 Cloudy SCT029 BKN033 OVC050 90 77     67%   103 29.68        
Jun 21 11:15 E 8 10 Mostly Cloudy BKN029 BKN034 BKN041 82 72     70%   87 29.68        
May 15 06:35 SW 8 10 Clear CLR 64 63     94%     29.98        
Notice The following observation data may not be complete
May 14 17:35 Calm 1.75 Light Rain SCT046 BKN065 OVC120   72      %     29.78        
May 14 09:15 SSW 14 10 Clear CLR 77 68     74%   78 29.91        
May 14 06:15 SSE 9 10 Clear CLR 72 64     78%   72 29.88        
May 14 05:55 SSE 10 10 Clear CLR 72 64     78%   72 29.88        
May 14 02:55   10 Clear CLR 73 64     73%   74 29.89        
May 13 23:35 S 13 10 Clear CLR 75 64     69%   76 29.95        
May 13 14:35   10 Clear CLR 90 68     49%   93 29.87        
May 13 11:35   10 Clear CLR 86 68     55%   89 29.95        
May 13 09:35 SSW 17 10 Clear CLR 79 66     65%   79 29.95        
May 12 22:35 S 16 10 Clear CLR 77 66     69%   78 29.92        
May 12 16:35   10 Partly Cloudy SCT050 88 64     46%   89 29.84        
May 12 14:55 S 17 10 Partly Cloudy SCT048 88 64     46%   89 29.85        
May 12 01:15 SSE 13 10 Clear CLR 72 63     73%   72 29.79        
May 11 19:35 S 14 10 Clear CLR 82 61     48%   83 29.71        
May 11 14:35 SSW 20 10 Partly Cloudy and Windy SCT050 84 61     45%   84 29.71        
May 11 10:35   10 Clear CLR 79 61     54%   79 29.73        
May 11 08:35 SSW 23 10 Clear and Windy CLR 73 61     65%   73 29.74        
Jun 12 06:15 S 13 10 Clear CLR 72 66     83%   72 29.85        
Jun 12 05:15 S 11 10 Clear CLR 72 64     78%   72 29.85        
Jun 12 02:35 S 18 10 Clear CLR 73 64     73%   74 29.84        
Notice The following observation data may not be complete
Jun 11 15:15   10 Clear CLR          %              
Jun 11 14:35   10 Clear CLR 90 66     46%   92 29.79        
Jun 11 12:55 S 25 10 Clear and Windy CLR 88 66     49%   90 29.82        
Notice The following observation data may not be complete
Jun 11 05:35   10 Clear CLR          %              
Jun 11 01:15   10 Clear CLR 75 64     69%   76 29.79        
Jun 10 15:35 S 23 10 Partly Cloudy and Windy SCT036 88 70     55%   93 29.74        
Jun 10 13:55   10 Mostly Cloudy BKN029 86 70     59%   91 29.77        
Jun 10 13:35   10 Mostly Cloudy BKN029 84 70     62%   88 29.78        
Jun 10 08:15   10 Cloudy OVC015 72 64     78%   72 29.82        
Jun 10 03:55 S 13 10 Clear CLR 68 63     83%     29.79        
Jun 10 01:55 S 16 10 Clear CLR 70 63     78%     29.8        
Jun 09 22:55 S 15 10 Clear CLR 73 63     69%   74 29.83        
Notice The following observation data may not be complete
Jun 09 11:35   10 Clear CLR          %              
Jun 09 07:35 S 3 10 Clear CLR 64 59     83%     29.92        
Jun 09 00:15 SSE 3 10 Clear   63 59     88%     29.92        
Jun 08 23:15 SSE 5 10 Clear CLR 64 57     77%     29.93        
Jun 08 19:55 SSE 5 10 Clear CLR 77 55     47%   77 29.91        
Jun 08 19:35 SE 5 10 Clear CLR 79 54     42%   78 29.91        
Jun 08 16:55 SSE 5 10 Clear CLR 81 52     37%   80 29.96        
Jun 08 12:55 SW 3 10 Clear CLR 79 52     39%   78 30.03        
Jun 08 09:15 SSE 5 10 Clear CLR 70 54     56%     30.08        
Notice The following observation data may not be complete
Jun 08 07:55 Calm 10 Clear CLR   55      %     30.08        
Notice The following observation data may not be complete
Jun 08 00:35   10 Clear CLR          %              
Jun 07 21:55 E 3 10 Clear CLR 68 54     60%     30.04        
Jun 07 12:35 NE 3 10 Clear CLR 79 52     39%   78 30.11        
Jun 06 05:35 N 3 10 Clear CLR 66 63     88%     29.96        
Jun 06 03:15 Calm 10 Clear CLR 68 64     88%     29.92        
Jun 05 14:15 NE 9 10 Partly Cloudy SCT050 88 64     46%   89 29.87